EW9140 Weather Reports


Display with metric or nautical units.
time (UTC)temp
F
wind
direction
speed
MPH
gust
MPH
rain 1hr
in
rain 24hr
in
rain mn
in
humidity
%
barometer
mb
20260510151525 79 138 0.0 1.0 0.00 0.00 0.00 42 1013.5
20260510150034 80 272 0.0 1.0 0.00 0.00 0.00 43 1013.6
20260510144520 79 125 0.0 1.0 0.00 0.00 0.00 45 1013.4
20260510143029 77 240 0.0 2.0 0.00 0.00 0.00 46 1013.3
20260510141512 75 262 0.0 0.0 0.00 0.00 0.00 54 1013.2
20260510140007 72 266 0.0 2.0 0.00 0.00 0.00 58 1013.2
20260510134503 70 192 0.0 0.0 0.00 0.00 0.00 65 1013.1
20260510133059 68 191 0.0 1.0 0.00 0.00 0.00 67 1013.1
20260510131557 66 289 0.0 2.0 0.00 0.00 0.00 74 1013.4
20260510130050 64 184 0.0 0.0 0.00 0.00 0.00 81 1013.2
20260510124558 61 195 0.0 1.0 0.00 0.00 0.00 89 1013.1
20260510123049 59 131 0.0 1.0 0.00 0.00 0.00 96 1013.0
20260510121545 58 290 0.0 0.0 0.00 0.00 0.00 96 1012.7
20260510120045 57 290 0.0 0.0 0.00 0.00 0.00 96 1012.7
20260510114546 55 290 0.0 0.0 0.00 0.00 0.00 96 1012.5
20260510113041 54 290 0.0 0.0 0.00 0.00 0.00 95 1012.2
20260510111538 53 290 0.0 0.0 0.00 0.00 0.00 95 1012.0
20260510110038 53 290 0.0 0.0 0.00 0.00 0.00 94 1011.9
20260510104536 53 290 0.0 0.0 0.00 0.00 0.00 94 1011.6
20260510103034 54 290 0.0 0.0 0.00 0.00 0.00 94 1011.4
20260510101531 54 290 0.0 0.0 0.00 0.00 0.00 94 1011.3
20260510100041 54 290 0.0 0.0 0.00 0.00 0.00 94 1010.9
20260510094540 55 290 0.0 0.0 0.00 0.00 0.00 93 1010.7
20260510093024 55 290 0.0 0.0 0.00 0.00 0.00 93 1010.6
20260510091524 56 290 0.0 0.0 0.00 0.00 0.00 93 1010.6
20260510090024 56 290 0.0 0.0 0.00 0.00 0.00 93 1010.5
20260510084518 57 290 0.0 0.0 0.00 0.00 0.00 92 1010.4
20260510083021 57 290 0.0 0.0 0.00 0.00 0.00 92 1010.3
20260510081513 58 290 0.0 0.0 0.00 0.00 0.00 92 1010.4
20260510080025 58 290 0.0 0.0 0.00 0.00 0.00 91 1010.3
20260510074511 59 290 0.0 0.0 0.00 0.00 0.00 91 1010.2
20260510073008 59 290 0.0 0.0 0.00 0.00 0.00 90 1009.9
20260510071503 60 290 0.0 0.0 0.00 0.00 0.00 89 1009.9
20260510070001 61 290 0.0 0.0 0.00 0.00 0.00 88 1009.9
20260510064558 62 290 0.0 0.0 0.00 0.00 0.00 87 1010.0
20260510063056 63 290 0.0 0.0 0.00 0.00 0.00 86 1010.0
20260510061556 63 290 0.0 0.0 0.00 0.00 0.00 85 1010.0
20260510060054 64 286 0.0 1.0 0.00 0.00 0.00 85 1010.1
20260510054554 64 298 0.0 2.0 0.00 0.00 0.00 85 1010.1
20260510053051 64 242 0.0 1.0 0.00 0.00 0.00 85 1010.3
20260510051551 64 302 0.0 0.0 0.00 0.00 0.00 84 1010.2
20260510050056 63 283 0.0 0.0 0.00 0.00 0.00 84 1010.2
20260510044556 64 278 0.0 0.0 0.00 0.00 0.00 84 1010.2
20260510043103 63 278 0.0 0.0 0.00 0.00 0.00 83 1010.2
20260510041546 63 278 0.0 1.0 0.00 0.00 0.00 82 1010.1
20260510040055 63 165 0.0 0.0 0.00 0.00 0.00 82 1010.0
20260510034547 63 166 0.0 0.0 0.00 0.00 0.00 81 1009.9
20260510033058 63 166 0.0 0.0 0.00 0.00 0.00 81 1009.9
20260510031547 63 165 0.0 0.0 0.00 0.00 0.00 80 1009.8
20260510030046 63 166 0.0 0.0 0.00 0.00 0.00 80 1009.7
20260510024543 63 166 0.0 0.0 0.00 0.00 0.00 80 1009.7
20260510023043 63 166 0.0 0.0 0.00 0.00 0.00 79 1009.7
20260510021542 63 166 0.0 0.0 0.00 0.00 0.00 78 1009.3
20260510020046 64 166 0.0 0.0 0.00 0.00 0.00 77 1009.1
20260510014546 64 166 0.0 0.0 0.00 0.00 0.00 76 1009.0
20260510013040 65 166 0.0 0.0 0.00 0.00 0.00 75 1008.9
20260510011543 65 166 0.0 0.0 0.00 0.00 0.00 74 1008.9
20260510010039 66 166 0.0 0.0 0.00 0.00 0.00 73 1008.6
20260510004539 66 166 0.0 0.0 0.00 0.00 0.00 72 1008.5
20260510003039 67 166 0.0 0.0 0.00 0.00 0.00 71 1008.2
20260510001542 68 166 0.0 0.0 0.00 0.00 0.00 68 1008.1
20260510000057 70 166 0.0 0.0 0.00 0.00 0.00 65 1007.9
20260509234549 71 166 0.0 0.0 0.00 0.00 0.00 61 1007.8
20260509233036 72 166 0.0 0.0 0.00 0.00 0.00 58 1007.7
20260509231534 73 166 0.0 0.0 0.00 0.00 0.00 55 1007.7
20260509230037 75 166 0.0 0.0 0.00 0.00 0.00 52 1007.6
20260509224534 76 166 0.0 0.0 0.00 0.00 0.00 51 1007.5
20260509223033 75 166 0.0 1.0 0.00 0.00 0.00 51 1007.7
20260509221532 76 4 0.0 0.0 0.00 0.00 0.00 50 1007.6
20260509220035 77 274 0.0 1.0 0.00 0.00 0.00 47 1007.6
20260509214534 77 159 0.0 3.0 0.00 0.00 0.00 48 1007.5
20260509213033 76 91 0.0 3.0 0.00 0.00 0.00 48 1007.3
20260509211532 78 292 0.0 3.0 0.00 0.00 0.00 44 1007.3
20260509210038 78 26 0.0 3.0 0.00 0.00 0.00 46 1007.2
20260509204534 78 302 0.0 5.0 0.00 0.00 0.00 46 1007.3
20260509203026 76 302 0.0 3.0 0.00 0.00 0.00 52 1007.1
20260509201526 75 290 0.0 3.0 0.00 0.00 0.00 54 1007.5
20260509200022 75 271 0.0 3.0 0.00 0.00 0.00 53 1007.6
20260509194525 74 120 0.0 2.0 0.00 0.00 0.00 53 1007.7
20260509193025 74 130 0.0 1.0 0.00 0.00 0.00 53 1008.1
20260509191524 74 108 0.0 4.0 0.00 0.00 0.00 52 1008.1
20260509190017 74 343 0.0 2.0 0.00 0.00 0.00 51 1008.3
20260509184522 74 8 0.0 4.0 0.00 0.00 0.00 48 1008.5
20260509183015 76 150 0.0 5.0 0.00 0.00 0.00 45 1008.6
20260509181513 77 138 0.0 3.0 0.00 0.00 0.00 46 1008.6
20260509180014 76 278 0.0 4.0 0.00 0.00 0.00 48 1008.8
20260509174511 75 278 0.0 6.0 0.00 0.00 0.00 48 1009.0
20260509173010 76 285 0.0 2.0 0.00 0.00 0.00 48 1008.9
20260509171508 76 296 0.0 4.0 0.00 0.00 0.00 48 1008.9
20260509170006 76 155 0.0 5.0 0.00 0.00 0.00 48 1009.1
20260509164503 75 316 0.0 3.0 0.00 0.00 0.00 49 1009.8
20260509163100 74 292 0.0 5.0 0.00 0.00 0.00 50 1010.0
20260509161603 73 279 0.0 6.0 0.00 0.00 0.00 51 1009.9
20260509160057 74 356 0.0 4.0 0.00 0.00 0.00 51 1009.9
20260509154553 73 145 1.0 5.0 0.00 0.00 0.00 53 1010.3
20260509153053 71 128 0.0 4.0 0.00 0.00 0.00 57 1010.6